HULIANWANG DIGUI-21 (63688 NORAD) Tracking and Keplerian Element Data

This shows tracking and keplerian element data for the satellite.

Feedback or suggestion? Click here.




ElementValue
Catalog63688
NameHULIANWANG DIGUI-21
Epoch Orbit3117
Epoch Day354.21003089
Epoch Year2025
RAAN13.3989
Inclination86.5085
Eccentricity0.0002038
Argument of Perigee81.0859
Mean Anonmoly279.0506
Mean Motion13.24415098
Decay Rate3.8E-07
L11 63688U 25086B 25354.21003089 .00000038 00000+0 54058-4 0 9990
L22 63688 86.5085 13.3989 0002038 81.0859 279.0506 13.24415098 31170



Live tracking and technical data element details for HULIANWANG DIGUI-21 (NORAD 63688). HULIANWANG DIGUI-21 can be tracked NOW for your location showing map with azimuth and elevation plus other details from your city location.







IsCatalogInMostPopularTable: catalog: 63688, numindb: 4
Update: records affected: 1



GetName: 63688 HULIANWANG DIGUI-21

Hit Count: updated at: Mon, 20 Apr 2026 10:25:16 GMT